Flag for Turkey Weather past 2 weeks in Bodrum, Turkey

Now
68 °F

Clear.


Feels Like: 68 °F
Forecast: 60 / 77 °F
Wind: 1 mph from Northwest

Location: Bodrum

Current Time: May 3, 2015 at 11:58:40 PM

Latest Report: May 3, 2015 at 9:00 PM


Visibility: 13 mi

Pressure: 29.91 "Hg

Humidity: 58%

Dew point: 53 °F

Location of BodrumLocation

Historic Weather in Bodrum — Graph

°F

Bodrum temperature yesterday

Maximum temperature yesterday: 72 °F (at 3:00 PM)
Minimum temperature yesterday: 59 °F (at 6:00 AM)
Average temperature yesterday: 68 °F

Past Weeks' High & Low Weather Summary

 TemperatureHumidityPressure
High81 °F (Apr 30, 3:00 PM)84% (Apr 20, 6:00 AM)30.22 "Hg (Apr 20, 6:00 AM)
Low49 °F (Apr 23, 6:00 AM)21% (Apr 24, 1:00 PM)29.83 "Hg (Apr 20, 6:00 PM)
Average67 °F50%29.98 "Hg
* Reported Apr 18 9:00 PM — May 3 9:00 PM, Bodrum, Weather by CustomWeather, © 2015

Note: Actual official high and low records may vary slightly from our data, if they occured in-between our weather recording intervals... More about our weather records

Advertising

Bodrum weather history for previous 24 hours

 ConditionsComfort  
Time TempWeatherWind HumidityBarometerVisibility
9:00 PM
Sun, May 3
68 °FClear.1 mph58%29.91 "Hg12 mi
8:00 PM70 °FPassing clouds.6 mph55%29.90 "Hg12 mi
7:00 PM75 °FPassing clouds.6 mph48%29.90 "Hg12 mi
6:00 PM78 °FPassing clouds.5 mph41%29.90 "Hg12 mi
5:00 PM78 °FScattered clouds.7 mph43%29.90 "Hg12 mi
4:00 PM78 °FScattered clouds.6 mph44%29.90 "Hg12 mi
3:00 PM74 °FPassing clouds.7 mph56%29.91 "Hg12 mi
2:00 PM72 °FPassing clouds.6 mph60%29.92 "Hg12 mi
1:00 PM70 °FPassing clouds.5 mph65%29.93 "Hg12 mi
12:00 PM69 °FPassing clouds.5 mph68%29.94 "Hg12 mi
11:00 AM67 °FPassing clouds.5 mph71%29.94 "Hg12 mi
10:00 AM67 °FPassing clouds.3 mph72%29.93 "Hg12 mi
9:00 AM66 °FPassing clouds.2 mph73%29.93 "Hg12 mi
6:00 AM60 °FClear.No wind84%29.90 "Hg12 mi
3:00 AM64 °FClear.5 mph75%29.92 "Hg12 mi
12:00 AM65 °FClear.6 mph76%29.95 "Hg12 mi
Weather by CustomWeather, © 2015

See weather overviewHow to use our weather pages